This is the latest recevied weather packets stored in our database for station/object WD4IXD-WX. If no packets are shown the sender has not sent any weather packets the latest 10 day(s).
| Time | Temp. | Humidity | Pressure | Rain* | Wind** | Luminosity | Snow |
|---|---|---|---|---|---|---|---|
| 1778098204 | -1.67° C | 73% | 1017.6 hPa | 0 mm | - | 988 W/m² | - |
| 1778097904 | -1.67° C | 72% | 1017.5 hPa | 0 mm | - | 990 W/m² | - |
| 1778097604 | -1.67° C | 72% | 1017.4 hPa | 0 mm | - | 995 W/m² | - |
| 1778097304 | -1.11° C | 73% | 1017.4 hPa | 0 mm | - | 1005 W/m² | - |
| 1778097004 | -1.11° C | 75% | 1017.4 hPa | 0 mm | - | 1009 W/m² | - |
| 1778096704 | -1.11° C | 74% | 1017.4 hPa | 0 mm | - | 1009 W/m² | - |
| 1778096404 | -0.56° C | 74% | 1017.5 hPa | 0 mm | - | 1021 W/m² | - |
| 1778096104 | -1.11° C | 73% | 1017.4 hPa | 0 mm | - | 1028 W/m² | - |
| 1778095803 | -1.11° C | 74% | 1017.4 hPa | 0 mm | - | 1046 W/m² | - |
| 1778095504 | -1.11° C | 75% | 1017.4 hPa | 0 mm | - | 1146 W/m² | - |
| 1778095203 | -1.11° C | 77% | 1017.3 hPa | 0 mm | - | 1195 W/m² | - |
| 1778094904 | -1.11° C | 77% | 1017.3 hPa | 0 mm | - | 1271 W/m² | - |
| 1778094604 | -1.67° C | 75% | 1017.3 hPa | 0 mm | - | 740 W/m² | - |
| 1778094304 | -1.67° C | 78% | 1017.4 hPa | 0 mm | - | 1078 W/m² | - |
| 1778094004 | -1.67° C | 77% | 1017.4 hPa | 0 mm | - | 710 W/m² | - |
| 1778093704 | -1.11° C | 76% | 1017.4 hPa | 0 mm | - | 589 W/m² | - |
| 1778093404 | -1.11° C | 79% | 1017.4 hPa | 0 mm | - | 984 W/m² | - |
| 1778093104 | -1.67° C | 78% | 1017.5 hPa | 0 mm | - | 807 W/m² | - |
| 1778092804 | -1.67° C | 81% | 1017.5 hPa | 0 mm | - | 668 W/m² | - |
| 1778092504 | -1.67° C | 80% | 1017.5 hPa | 0 mm | - | 740 W/m² | - |
| 1778092204 | -2.22° C | 82% | 1017.5 hPa | 0 mm | - | 817 W/m² | - |
| 1778091904 | -2.78° C | 83% | 1017.4 hPa | 0 mm | - | 1004 W/m² | - |
| 1778091604 | -3.33° C | 83% | 1017.4 hPa | 0 mm | - | 756 W/m² | - |
| 1778091304 | -3.33° C | 83% | 1017.5 hPa | 0.25 mm | - | 568 W/m² | - |
| 1778091004 | -3.33° C | 83% | 1017.5 hPa | 0.25 mm | - | 522 W/m² | - |
* Rain latest hour (hover to see other rain measurements)
** Current wind speed in m/s (hover to see current wind gust speed)